Weather History for New Castle, PA

Change the Weather History Date:

Thursday, March 6, 2014

  Actual Average Record
Temperature  
Mean Temperature 25 °F -  
Max Temperature 36 °F 46 °F 75 °F (1992)
Min Temperature 14 °F 24 °F 8 °F (1926)
Degree Days  
Heating Degree Days 40    
Moisture  
Dew Point 8 °F    
Average Humidity 51    
Maximum Humidity 71    
Minimum Humidity 39    
Precipitation  
Precipitation 0.00 in - - ()
Sea Level Pressure  
Sea Level Pressure 30.43 in    
Wind  
Wind Speed 8 mph (ESE)    
Max Wind Speed 12 mph    
Max Gust Speed 20 mph    
Visibility 10 miles    
Events      
Averages and records for this station are not official NWS values.
T = Trace of Precipitation, MM = Missing Value Source: NWS Daily Summary

Daily Weather History Graph

Daily Weather History Graph

Search for Another Location

Airport:

Trip Planner

Search our weather history database for the weather conditions in past years. The results will help you decide how hot, cold, wet, or windy it might be!

Date:

Astronomy

Mar. 06, 2014 Rise Set
Actual Time 6:48 AM EST 6:18 PM EST
Civil Twilight 6:20 AM EST 6:45 PM EST
Nautical Twilight 5:48 AM EST 7:17 PM EST
Astronomical Twilight 5:16 AM EST 7:49 PM EST
Moon 9:51 AM EST (3/6) No Moon Set
Length of Visible Light 12h 25m
Length of Day
11h 30m
Waxing Crescent, 32% of the Moon is Illuminated
Mar 6
Waxing Crescent
Mar 8
First Quarter
Mar 16
Full
Mar 23
Last Quarter
Mar 30
New

Hourly Weather History & Observations

Time (EST) Temp. Windchill Dew Point Humidity Pressure Visibility Wind Dir Wind Speed Gust Speed Precip Events Conditions
12:56 AM 14.0 °F 3.9 °F 6.1 °F 71% 30.53 in 10.0 mi NE 6.9 mph - N/A   Clear
1:56 AM 14.0 °F 2.0 °F 5.0 °F 67% 30.53 in 10.0 mi ENE 9.2 mph - N/A   Clear
2:56 AM 14.0 °F 2.9 °F 4.1 °F 65% 30.52 in 10.0 mi East 8.1 mph - N/A   Clear
3:56 AM 14.0 °F 1.2 °F 3.0 °F 62% 30.51 in 10.0 mi East 10.4 mph - N/A   Clear
4:56 AM 14.0 °F 1.2 °F 2.1 °F 59% 30.51 in 10.0 mi East 10.4 mph - N/A   Clear
5:56 AM 14.0 °F 2.9 °F 0.1 °F 54% 30.53 in 10.0 mi East 8.1 mph - N/A   Clear
6:56 AM 14.0 °F 3.9 °F -0.9 °F 52% 30.54 in 10.0 mi East 6.9 mph - N/A   Clear
7:56 AM 15.1 °F 4.2 °F -0.9 °F 49% 30.54 in 10.0 mi East 8.1 mph - N/A   Clear
8:56 AM 18.1 °F 6.3 °F 0.1 °F 45% 30.54 in 10.0 mi East 10.4 mph - N/A   Clear
9:56 AM 21.0 °F 9.3 °F 2.1 °F 44% 30.51 in 10.0 mi ESE 11.5 mph 19.6 mph N/A   Clear
10:56 AM 24.1 °F 13.7 °F 5.0 °F 44% 30.48 in 10.0 mi ESE 10.4 mph - N/A   Clear
11:56 AM 28.0 °F 19.3 °F 8.1 °F 43% 30.46 in 10.0 mi ESE 9.2 mph - N/A   Clear
12:56 PM 30.2 °F 21.9 °F 10.4 °F 44% 30.35 in 10.0 mi ESE 9.2 mph - N/A   Clear
1:56 PM 32.9 °F 26.7 °F 12.0 °F 42% 30.40 in 10.0 mi Variable 6.9 mph - N/A   Clear
2:56 PM 34.9 °F 28.3 °F 13.1 °F 41% 30.37 in 10.0 mi East 8.1 mph - N/A   Clear
3:56 PM 36.0 °F 29.0 °F 13.1 °F 39% 30.35 in 10.0 mi ESE 9.2 mph - N/A   Clear
4:56 PM 34.9 °F 30.8 °F 14.0 °F 42% 30.35 in 10.0 mi ESE 4.6 mph - N/A   Clear
5:56 PM 32.9 °F 26.7 °F 14.0 °F 46% 30.35 in 10.0 mi SE 6.9 mph - N/A   Clear
6:56 PM 31.1 °F 22.4 °F 14.0 °F 49% 30.35 in 10.0 mi ESE 10.4 mph - N/A   Clear
7:56 PM 29.1 °F 21.3 °F 13.1 °F 51% 30.35 in 10.0 mi ESE 8.1 mph - N/A   Clear
8:56 PM 28.0 °F 21.7 °F 13.1 °F 54% 30.33 in 10.0 mi ESE 5.8 mph - N/A   Clear
9:56 PM 28.0 °F 21.7 °F 13.1 °F 54% 30.32 in 10.0 mi ESE 5.8 mph - N/A   Clear
10:56 PM 27.1 °F 21.8 °F 13.1 °F 56% 30.30 in 10.0 mi ESE 4.6 mph - N/A   Clear
11:56 PM 27.1 °F 23.2 °F 13.1 °F 56% 30.27 in 10.0 mi ESE 3.5 mph - N/A   Clear